This is the latest recevied weather packets stored in our database for station/object 9M8ZAL-13. If no packets are shown the sender has not sent any weather packets the latest 10 day(s).
| Time | Temp. | Humidity | Pressure | Rain* | Wind** | Luminosity | Snow |
|---|---|---|---|---|---|---|---|
| 1777646005 | 28.33° C | - | 1009.4 hPa | - | - | 1000 W/m² | - |
| 1777645405 | 28.33° C | - | 1009.4 hPa | - | - | 1000 W/m² | - |
| 1777644805 | 28.33° C | - | 1009.3 hPa | - | - | 1000 W/m² | - |
| 1777644205 | 28.33° C | - | 1009.3 hPa | - | - | 1000 W/m² | - |
| 1777643605 | 28.33° C | - | 1009.2 hPa | - | - | 1000 W/m² | - |
| 1777643005 | 28.33° C | - | 1009 hPa | - | - | 1000 W/m² | - |
| 1777642405 | 28.33° C | - | 1009 hPa | - | - | 1000 W/m² | - |
| 1777641805 | 28.33° C | - | 1008.9 hPa | - | - | 1000 W/m² | - |
| 1777641205 | 28.33° C | - | 1008.7 hPa | - | - | 1000 W/m² | - |
| 1777640605 | 28.89° C | - | 1008.5 hPa | - | - | 1000 W/m² | - |
| 1777640005 | 28.33° C | - | 1008.2 hPa | - | - | 1000 W/m² | - |
| 1777639405 | 28.33° C | - | 1008.1 hPa | - | - | 1000 W/m² | - |
| 1777638805 | 28.33° C | - | 1007.7 hPa | - | - | 1000 W/m² | - |
| 1777638205 | 27.78° C | - | 1007.6 hPa | - | - | 1000 W/m² | - |
| 1777637606 | 27.78° C | - | 1007.4 hPa | - | - | 1000 W/m² | - |
| 1777637005 | 28.89° C | - | 1007.2 hPa | - | - | 1000 W/m² | - |
| 1777636405 | 28.89° C | - | 1007.1 hPa | - | - | 1000 W/m² | - |
| 1777635804 | 28.89° C | - | 1007.1 hPa | - | - | 1000 W/m² | - |
| 1777635205 | 28.89° C | - | 1007.1 hPa | - | - | 1000 W/m² | - |
| 1777634604 | 28.89° C | - | 1006.9 hPa | - | - | 1000 W/m² | - |
| 1777634004 | 28.89° C | - | 1006.7 hPa | - | - | 1000 W/m² | - |
| 1777633404 | 28.89° C | - | 1006.3 hPa | - | - | 1000 W/m² | - |
| 1777632804 | 29.44° C | - | 1006.3 hPa | - | - | 1000 W/m² | - |
| 1777632204 | 29.44° C | - | 1006 hPa | - | - | 1000 W/m² | - |
| 1777631605 | 29.44° C | - | 1006 hPa | - | - | 1000 W/m² | - |
* Rain since midnight (hover to see other rain measurements)
** Current wind speed in m/s (hover to see current wind gust speed)